Location: *
(34.6903°N, 135.5184°E)
Time: 23:28:16
(UTC+00:00)

Cosmos 1697 Rocket - Pass Details

Date: 22 September 2019
Orbit: 831 x 844 km, 71.0° (Epoch: 21 October)

Event Time Altitude Azimuth Distance (km) Brightness Sun altitude
Rises 20:04:21 0° 199° (SSW) 3,375 5.6 -9.4°
Reaches altitude 10° 20:06:46 10° 199° (SSW) 2,446 4.9 -8.9°
Maximum altitude 20:12:24 88° 112° (ESE) 847 2.8 -7.7°
Drops below altitude 10° 20:18:05 10° 22° (NNE) 2,467 5.5 -6.6°
Sets 20:20:32 0° 22° (NNE) 3,406 6.2 -6.1°
